STARLINK-32854, 62816

Orbit data source: Space-Track

STARLINK-32854, 62816 is a payload satellite owned by SpaceX/Seattle (US) in LEO that was launched on Fri, 24 Jan 2025 UTC via an FALCON 9 launch vehicle from the Air Force Western Test Range (AFWTR). Payload-class satellites include a variety of spacecraft equipped with specific instruments for various scientific and technological missions. These include communications satellites like Starlink; space stations such as the ISS; scientific satellites like the Hubble; Earth observation satellites from companies like Planet Labs, Umbra, and HawkEye 360; GPS; miniature CubeSats for education and research; and military/defense satellites.

Loading next visibility...
Identifier
62816, 2025-018L
Orbit
LEO
Country
Flag of USUS
Related business
Manufacturer
SpaceX/Seattle
Mission
Operational Commercial Communications
Bus & Motor
STARLINK V2M, Unknown motor
Mass
730 kg wet, ~700 kg dry
Launch date (UTC)
2025-01-24 (8 months ago)
Launch vehicle
FALCON 9
Launch site
Air Force Western Test Range (AFWTR)
Object type
Payload
Rocket body
Debris
Shape & HBR
Box + 2 Pan, 14.5 m
Radar Cross Section
33.884 m², Large (>1 m²)

Expand to show TLE details & history
Last TLE update: 1 day ago

TLE from 1 day ago
0 STARLINK-32854
1 62816U 25018L   25260.64259673  .00058372  00000-0  19640-2 0  9993
2 62816  53.1614  33.4202 0002097  79.3566 280.7671 15.30257581 36662
Epoch: 2025-09-17T15:25Z
TLE epoch observation values (Epoch: 2025-09-17T15:25:20.357Z)
Latitude
-0.00001°
Longitude
165.26976°
Altitude
475.675 km
Speed
7.629 km/s
True Right ascension
02h 13m 40s
True Declination
0° 00' 00"
Sunlit
Object was in full shadow at epoch
Visualization orbit readout
Latitude
Unknown
Longitude
Unknown
Altitude
Unknown
Speed
Unknown
Apparent Right ascension
Unknown
Apparent Declination
Unknown
Sunlit
N/A
Visualization observer readout
Local Sidereal Time
07:52:01
Azimuth
Unknown
Elevation
Unknown
Doppler factor
Unknown
Orbital elements
Apogee altitude
476.737 km
Perigee altitude
473.862 km
Semi-major axis
6,853.436 km
Eccentricity
0.00021
Inclination
53.1614°
RAAN
33.4202°
Arg. of periapsis
79.3566°
True anomaly
280.74349°
Mean anomaly
280.7671°
Eccentric anomaly
280.7553°
Mean motion
3.82543 °/min
Orbital period
94.11 mins
BSTAR
0.001964
Loading maneuver chart data...
Computing Atmospheric mass density...
Loading historical data...
Loading historical data...
Loading historical data...
Loading historical data...
Loading historical data...
Loading historical data...
Loading historical data...

Documentation

Showing up to 5 results
|